sat.trackr.live / text

‹ back to catalog

SKYSAT-C13

NORAD 43802 · 2018-099AW

PAYLOAD ACTIVE UNKNOWN

§ Identity

Operator
Country
US
Launch date
2018-12-03
Launch site
AFWTR
Launch vehicle
Mass (kg)
RCS (m²)

Purposes: earth_obs

External: N2YO · Heavens-Above · Gunter

§ Orbital elements

Epoch: 2026-06-12T02:35:05.662752Z

Period
89.25 min
Inclination
96.9045°
Eccentricity
0.0007304
Mean motion
16.13516080 rev/d
Perigee alt
232.4 km
Apogee alt
242.0 km
Semi-major
6,615.4 km
B*
6.1473e-4
RAAN
212.5387°
Arg perigee
218.4724°
Mean anomaly
141.6042°
Rev number
42,216

§ Raw data

SKYSAT-C131 43802U 18099AW  26163.10770443  .00720066  30311-3  61473-3 0  99942 43802  96.9045 212.5387 0007304 218.4724 141.6042 16.13516080422166

JSON: /api/v1/satellites/43802 · /tle

For live sub-satellite position, see the globe view (requires WebGL).

§ Visibility from observer

Set your observer location to see the next 7 days of passes ≥ 10°. The values pass through the URL so the page stays shareable.

No JS? Fill the form by hand. The geolocation button needs JavaScript.